Flag for United Kingdom Weather past 2 weeks in Oldham, England, United Kingdom

55 °F

Light rain. Passing clouds.

Feels Like: 52 °F
Forecast: 42 / 57 °F
Wind: 14 mph from Northwest

Location: Manchester Airport

Current Time: Oct 7, 2015 at 7:49:40 AM

Latest Report: Oct 7, 2015 at 6:50 AM

Visibility: 6 mi

Pressure: 29.62 "Hg

Humidity: 100%

Dew point: 55 °F

Location of OldhamLocation

Historic Weather in Oldham — Graph


Oldham temperature yesterday

Maximum temperature yesterday: 66 °F (at 12:20 PM)
Minimum temperature yesterday: 54 °F (at 11:50 PM)
Average temperature yesterday: 61 °F

Past Weeks' High & Low Weather Summary

High66 °F (Oct 5, 1:50 PM)100% (Sep 22, 6:50 AM)30.66 "Hg (Sep 22, 6:50 AM)
Low37 °F (Oct 2, 5:50 AM)49% (Oct 1, 3:50 PM)29.39 "Hg (Oct 6, 7:20 AM)
Average53 °F82%30.13 "Hg
* Reported Sep 22 6:20 AM — Oct 7 6:50 AM, Oldham, Weather by CustomWeather, © 2015

Note: Actual official high and low records may vary slightly from our data, if they occured in-between our weather recording intervals... More about our weather records


Oldham weather history for previous 24 hours

Time TempWeatherWind HumidityBarometerVisibility
6:50 AM
Wed, Oct 7
55 °FLight rain. Passing clouds.14 mph100%29.62 "Hg6 mi
6:20 AM57 °FRain. Passing clouds.9 mph94%29.59 "Hg4 mi
5:50 AM57 °FRain. Mostly cloudy.12 mph94%29.59 "Hg3 mi
5:20 AM57 °FLight rain. Mostly cloudy.10 mph100%29.59 "Hg4 mi
4:20 AM57 °FRain. Mostly cloudy.9 mph94%29.56 "Hg2 mi
3:50 AM57 °FRain. Mostly cloudy.8 mph100%29.56 "Hg2 mi
3:20 AM57 °FRain. Partly cloudy.8 mph100%29.56 "Hg2 mi
2:50 AM57 °FRain. Mostly cloudy.5 mph94%29.56 "Hg1 mi
2:20 AM57 °FLight rain. Fog.5 mph94%29.53 "Hg1 mi
1:50 AM55 °FFog.7 mph100%29.53 "Hg1 mi
1:20 AM55 °FFog.2 mph100%29.53 "Hg1 mi
12:50 AM55 °FFog.No wind94%29.53 "Hg1 mi
12:20 AM54 °FFog.No wind100%29.50 "Hg0 mi
11:50 PM
Tue, Oct 6
54 °FFog.No wind100%29.50 "Hg1 mi
11:20 PM55 °FPassing clouds.No wind100%29.50 "Hg0 mi
10:20 PM57 °FFog.3 mph94%29.47 "Hg2 mi
9:50 PM59 °FPassing clouds.5 mph94%29.47 "HgN/A
9:20 PM59 °FLight rain. Partly cloudy.6 mph94%29.47 "HgN/A
8:50 PM59 °FHeavy rain. Partly cloudy.6 mph94%29.45 "Hg3 mi
8:20 PM59 °FRain. Partly cloudy.3 mph100%29.45 "Hg4 mi
7:50 PM59 °FLight rain. Partly cloudy.5 mph100%29.45 "Hg6 mi
7:20 PM59 °FPartly sunny.5 mph100%29.42 "Hg6 mi
6:50 PM59 °FLight rain. Passing clouds.3 mph100%29.42 "HgN/A
6:20 PM59 °FLight rain. Passing clouds.2 mph94%29.42 "Hg4 mi
5:50 PM61 °FPassing clouds.2 mph88%29.39 "HgN/A
5:20 PM61 °FPassing clouds.2 mph88%29.39 "HgN/A
4:50 PM61 °FPassing clouds.5 mph94%29.39 "HgN/A
4:20 PM61 °FPassing clouds.3 mph94%29.39 "HgN/A
3:50 PM61 °FLight rain. Scattered clouds.6 mph88%29.39 "HgN/A
3:20 PM61 °FThunderstorms. Broken clouds.7 mph88%29.39 "Hg2 mi
2:50 PM64 °FThundershowers. Broken clouds.8 mph78%29.39 "HgN/A
2:20 PM64 °FPassing clouds.6 mph78%29.39 "HgN/A
1:50 PM64 °FPassing clouds.9 mph73%29.39 "HgN/A
1:20 PM66 °FPassing clouds.6 mph68%29.39 "HgN/A
12:50 PM64 °FPassing clouds.9 mph73%29.39 "HgN/A
12:20 PM66 °FPassing clouds.9 mph68%29.39 "HgN/A
11:50 AM64 °FPassing clouds.8 mph73%29.39 "HgN/A
11:20 AM64 °FPassing clouds.9 mph73%29.42 "HgN/A
10:50 AM63 °FPassing clouds.12 mph77%29.42 "HgN/A
10:20 AM63 °FPassing clouds.12 mph77%29.42 "HgN/A
9:50 AM63 °FPassing clouds.7 mph83%29.39 "HgN/A
9:20 AM63 °FPassing clouds.6 mph83%29.42 "HgN/A
8:50 AM61 °FPassing clouds.6 mph88%29.42 "HgN/A
8:20 AM59 °FPassing clouds.5 mph94%29.39 "HgN/A
7:50 AM59 °FPassing clouds.7 mph94%29.39 "HgN/A
7:20 AM59 °FPassing clouds.8 mph94%29.39 "HgN/A
Weather by CustomWeather, © 2015

See weather overviewHow to use our weather pages